This is the latest recevied weather packets stored in our database for station/object YT6PT-8. If no packets are shown the sender has not sent any weather packets the latest 10 day(s).
| Time | Temp. | Humidity | Pressure | Rain* | Wind** | Luminosity | Snow |
|---|---|---|---|---|---|---|---|
| 1787583636 | 24.44° C | 42% | 1010 hPa | 0 mm | 1.34 m/s, 45° | - | - |
| 1787583350 | 24.44° C | 42% | 1009.9 hPa | 0 mm | 0.89 m/s, 45° | - | - |
| 1787583052 | 24.44° C | 42% | 1009.9 hPa | 0 mm | 0.89 m/s, 45° | - | - |
| 1787582749 | 23.89° C | 43% | 1010 hPa | 0 mm | 1.34 m/s, 68° | - | - |
| 1787582458 | 23.89° C | 43% | 1010 hPa | 0 mm | 1.34 m/s, 68° | - | - |
| 1787582159 | 23.89° C | 43% | 1010 hPa | 0 mm | 1.34 m/s, 68° | - | - |
| 1787581830 | 23.89° C | 43% | 1010 hPa | 0 mm | 1.34 m/s, 68° | - | - |
| 1787581531 | 23.89° C | 44% | 1010.1 hPa | 0 mm | 0.89 m/s, 90° | - | - |
| 1787581237 | 23.89° C | 44% | 1010.1 hPa | 0 mm | 0.89 m/s, 90° | - | - |
| 1787580931 | 23.89° C | 43% | 1009.8 hPa | 0 mm | 0.89 m/s, 90° | - | - |
| 1787580639 | 23.89° C | 43% | 1009.8 hPa | 0 mm | 0.89 m/s, 90° | - | - |
| 1787580330 | 23.33° C | 44% | 1009.8 hPa | 0 mm | 1.79 m/s, 22° | - | - |
| 1787580038 | 23.33° C | 44% | 1009.8 hPa | 0 mm | 1.79 m/s, 22° | - | - |
| 1787579730 | 23.89° C | 44% | 1009.9 hPa | 0 mm | 1.79 m/s, 45° | - | - |
| 1787579431 | 23.89° C | 43% | 1010.2 hPa | 0 mm | 2.68 m/s, 90° | - | - |
| 1787579130 | 23.89° C | 43% | 1010.2 hPa | 0 mm | 2.68 m/s, 90° | - | - |
| 1787578831 | 23.89° C | 43% | 1010.2 hPa | 0 mm | 2.68 m/s, 90° | - | - |
| 1787578530 | 23.89° C | 43% | 1010.2 hPa | 0 mm | 2.24 m/s, 68° | - | - |
| 1787578231 | 23.89° C | 43% | 1010.2 hPa | 0 mm | 2.24 m/s, 68° | - | - |
| 1787577932 | 23.33° C | 43% | 1010.2 hPa | 0 mm | 1.34 m/s, 68° | - | - |
| 1787577632 | 23.33° C | 43% | 1010.2 hPa | 0 mm | 1.34 m/s, 68° | - | - |
| 1787577037 | 23.33° C | 43% | 1010.4 hPa | 0 mm | 0.89 m/s, 45° | - | - |
| 1787576749 | 23.33° C | 44% | 1010.4 hPa | 0 mm | 0 m/s | - | - |
| 1787576456 | 23.33° C | 44% | 1010.4 hPa | 0 mm | 0 m/s | - | - |
| 1787576132 | 23.33° C | 43% | 1010.1 hPa | 0 mm | 1.79 m/s, 112° | - | - |
* Rain latest hour (hover to see other rain measurements)
** Current wind speed in m/s (hover to see current wind gust speed)